FW9470 Weather Reports


time (UTC)temp
C
wind
direction
speed
KPH
gust
KPH
rain 1hr
cm
rain 24hr
cm
rain mn
cm
humidity
%
barometer
mb
20260506044529 15 0 0.0 0.0 0.00 0.00 0.00 82 1013.1
20260506043029 16 0 0.0 0.0 0.00 0.00 0.00 81 1013.1
20260506041537 16 0 0.0 0.0 0.00 0.00 0.00 81 1013.1
20260506040032 16 0 0.0 0.0 0.00 0.00 0.00 80 1013.0
20260506034530 16 0 0.0 0.0 0.00 0.00 0.00 77 1013.1
20260506033033 17 0 0.0 0.0 0.00 0.00 0.00 78 1012.9
20260506031530 17 0 0.0 0.0 0.00 0.00 0.00 77 1013.2
20260506030035 18 0 0.0 0.0 0.00 0.00 0.00 76 1013.2
20260506024532 19 0 0.0 1.6 0.00 0.00 0.00 69 1013.3
20260506023030 20 198 0.0 1.6 0.00 0.00 0.00 69 1013.0
20260506021532 20 0 0.0 1.6 0.00 0.00 0.00 70 1012.6
20260506020032 20 0 0.0 1.6 0.00 0.00 0.00 70 1012.4
20260506014544 19 198 0.0 1.6 0.00 0.00 0.00 69 1012.6
20260506013036 20 0 0.0 0.0 0.00 0.00 0.00 68 1012.8
20260506011538 20 0 0.0 0.0 0.00 0.00 0.00 66 1012.9
20260506010031 20 0 0.0 1.6 0.00 0.00 0.00 69 1012.7
20260506004538 20 0 0.0 1.6 0.00 0.00 0.00 62 1012.8
20260506003030 22 0 0.0 3.2 0.00 0.00 0.00 60 1012.7
20260506001534 23 214 0.0 3.2 0.00 0.00 0.00 50 1012.7
20260506000040 23 228 0.0 4.8 0.00 0.00 0.00 49 1012.7
20260505234530 23 234 3.2 12.9 0.00 0.00 0.00 47 1012.6
20260505233032 24 217 3.2 14.5 0.00 0.00 0.00 45 1012.5
20260505231532 25 276 8.0 19.3 0.00 0.00 0.00 43 1012.3
20260505230034 25 224 6.4 16.1 0.00 0.00 0.00 43 1012.2
20260505224538 26 247 8.0 17.7 0.00 0.00 0.00 42 1012.5
20260505223041 26 233 8.0 17.7 0.00 0.00 0.00 41 1012.4
20260505221531 26 164 6.4 14.5 0.00 0.00 0.00 43 1012.3
20260505220039 26 150 8.0 24.1 0.00 0.00 0.00 41 1012.6
20260505214549 26 246 14.5 24.1 0.00 0.00 0.00 40 1012.4
20260505213049 26 242 8.0 20.9 0.00 0.00 0.00 40 1012.5
20260505211530 26 229 11.3 22.5 0.00 0.00 0.00 39 1012.7
20260505210032 26 360 8.0 19.3 0.00 0.00 0.00 39 1012.7
20260505204532 26 360 11.3 20.9 0.00 0.00 0.00 41 1012.7
20260505203031 26 360 8.0 17.7 0.00 0.00 0.00 40 1013.0
20260505201545 26 0 4.8 9.7 0.00 0.00 0.00 42 1013.2
20260505200034 25 175 9.7 20.9 0.00 0.00 0.00 41 1013.4
20260505194533 25 219 11.3 20.9 0.00 0.00 0.00 40 1013.8
20260505193043 26 360 8.0 22.5 0.00 0.00 0.00 40 1013.8
20260505191536 25 283 8.0 22.5 0.00 0.00 0.00 41 1014.2
20260505190036 25 203 11.3 20.9 0.00 0.00 0.00 39 1014.3
20260505184535 25 223 11.3 22.5 0.00 0.00 0.00 40 1014.4
20260505183047 25 243 8.0 20.9 0.00 0.00 0.00 40 1014.4
20260505181531 25 233 3.2 14.5 0.00 0.00 0.00 41 1014.4
20260505180040 24 360 9.7 25.7 0.00 0.00 0.00 42 1014.9
20260505174543 24 297 9.7 17.7 0.00 0.00 0.00 43 1015.4
20260505173037 25 186 8.0 24.1 0.00 0.00 0.00 41 1015.5
20260505171539 24 360 12.9 24.1 0.00 0.00 0.00 41 1015.6
20260505170034 24 238 6.4 17.7 0.00 0.00 0.00 37 1015.3
20260505164536 23 248 9.7 25.7 0.00 0.00 0.00 45 1015.4
20260505163032 23 229 4.8 17.7 0.00 0.00 0.00 43 1015.6
20260505161531 23 244 11.3 19.3 0.00 0.00 0.00 49 1015.8
20260505153033 22 360 3.2 12.9 0.00 0.00 0.00 59 1016.1
20260505151532 21 294 3.2 12.9 0.00 0.00 0.00 62 1016.2
20260505124536 12 0 0.0 0.0 0.00 0.00 0.00 95 1015.6
20260505123049 10 0 0.0 0.0 0.00 0.00 0.00 96 1015.4
20260505121535 9 0 0.0 0.0 0.00 0.00 0.00 96 1015.3
20260505120041 8 0 0.0 0.0 0.00 0.00 0.00 96 1015.5
20260505114545 8 0 0.0 0.0 0.00 0.00 0.00 96 1015.1
20260505113032 7 0 0.0 0.0 0.00 0.00 0.00 95 1015.2
20260505111532 7 0 0.0 0.0 0.00 0.00 0.00 95 1015.3
20260505101530 7 0 0.0 0.0 0.00 0.00 0.00 95 1015.0
20260505100034 7 0 0.0 0.0 0.00 0.00 0.00 95 1014.7
20260505094530 8 0 0.0 0.0 0.00 0.00 0.00 95 1014.8
20260505093040 8 0 0.0 0.0 0.00 0.00 0.00 94 1014.8
20260505091540 8 0 0.0 0.0 0.00 0.00 0.00 94 1014.6
20260505090044 8 0 0.0 0.0 0.00 0.00 0.00 94 1014.6
20260505084530 8 0 0.0 0.0 0.00 0.00 0.00 94 1014.5
20260505083030 8 0 0.0 0.0 0.00 0.00 0.00 94 1014.5
20260505081537 8 0 0.0 0.0 0.00 0.00 0.00 93 1014.4
20260505080046 8 0 0.0 0.0 0.00 0.00 0.00 93 1014.4
20260505074532 8 0 0.0 0.0 0.00 0.00 0.00 93 1014.2
20260505073045 8 0 0.0 0.0 0.00 0.00 0.00 92 1014.2
20260505071532 8 0 0.0 0.0 0.00 0.00 0.00 92 1014.3
20260505070032 8 0 0.0 1.6 0.00 0.00 0.00 92 1014.3
20260505064532 9 0 0.0 3.2 0.00 0.00 0.00 91 1014.3
20260505063033 9 0 0.0 0.0 0.00 0.00 0.00 91 1014.2
20260505061530 10 0 0.0 0.0 0.00 0.00 0.00 90 1014.2
20260505060034 10 0 0.0 0.0 0.00 0.00 0.00 90 1014.1
20260505054532 10 0 0.0 0.0 0.00 0.00 0.00 89 1014.1
20260505053032 10 0 0.0 0.0 0.00 0.00 0.00 88 1014.1
20260505051536 10 0 0.0 0.0 0.00 0.00 0.00 88 1014.3
20260505050104 10 0 0.0 0.0 0.00 0.00 0.00 88 1014.4